Location: Bacharowice
(49.9333°N, 19.5833°E)
Time: 23:51:05
(UTC+00:00)

CZ-2D R/B - Pass Details

Date: 11 May 2021
Orbit: 791 x 846 km, 98.7° (Epoch: 21 June)

Event Time Altitude Azimuth Distance (km) Brightness Sun altitude
Rises 22:40:39 0° 31° (NNE) 3,393 6.3 -21.9°
Reaches altitude 10° 22:44:40 10° 60° (ENE) 2,440 5.0 -21.9°
Maximum altitude 22:46:51 12° 84° (E) 2,262 4.5 -21.9°
Drops below altitude 10° 22:49:02 10° 109° (ESE) 2,418 4.4 -21.9°
Enters shadow 22:49:30 - 113° (ESE) 2,493 4.4 -21.9°
